Location: Most
(50.5133°N, 13.6207°E)
Time: 10:22:36
(UTC+01:00)

Oscar 11 - Pass Details

Date: 09 December 2021
Orbit: 611 x 625 km, 97.6° (Epoch: 26 January)

Event Time Altitude Azimuth Distance (km) Brightness Sun altitude
Rises 16:41:12 0° 172° (S) 2,897 10.8 -6.2°
Reaches altitude 10° 16:43:24 10° 175° (S) 1,996 10.0 -6.5°
Maximum altitude 16:47:43 67° 258° (WSW) 683 7.6 -7.1°
Drops below altitude 10° 16:52:05 10° 342° (NNW) 2,012 9.6 -7.7°
Sets 16:54:19 0° 345° (NNW) 2,923 10.4 -8.0°
